Regional Weather Roundup
Issued by NWS Mobile, AL

Home | Current Version | Previous Version | Text Only | Print | Product List | Glossary On
Versions: 1 2 3 4 5 6 7 8 9 10 11 12 13 14 15 16 17 18 19 20 21 22 23 24 25 26 27 28 29 30 31 32 33 34 35 36 37 38 39 40 41 42 43 44 45 46 47 48 49 50
000
ASUS44 KMOB 041416
RWRMOB
REGIONAL WEATHER ROUNDUP
NATIONAL WEATHER SERVICE MOBILE AL
900 AM CDT FRI SEP 04 2015

ALZ061>064-041500-
COASTAL ALABAMA


CITY           SKY/WX    TMP DP  RH WIND       PRES   REMARKS
MOBILE REG APT PTSUNNY   80  75  84 VRB3      30.03R
BROOKLEY FIELD MOSUNNY   83  75  77 N3        30.03R
GULF SHORES    SUNNY     82  77  85 N5        30.01S

$$

ALZ051>060-041500-
INTERIOR SOUTHWEST AND SOUTH CENTRAL ALABAMA


CITY           SKY/WX    TMP DP  RH WIND       PRES   REMARKS
ANDALUSIA/OPP  SUNNY     85  74  69 NW5       30.02R
EVERGREEN      SUNNY     81  74  79 CALM      30.02F
FLORALA        SUNNY     79  74  84 VRB3      30.03S
GREENVILLE     FAIR      82  71  69 N6        30.02R

$$

FLZ001>006-041500-
WESTERN FLORIDA PANHANDLE


CITY           SKY/WX    TMP DP  RH WIND       PRES   REMARKS
CRESTVIEW      SUNNY     80  75  84 NW7       30.02F
DESTIN         SUNNY     83  75  77 N8        30.00F
DUKE FIELD     FAIR      78  75  91 N5        30.00F
MARY ESTHER    SUNNY     82  76  82 N6        29.99F
MILTON         MOSUNNY   83  75  77 NW7       30.01F
PENSACOLA      SUNNY     82  74  76 N6        30.01S
NAS PENSACOLA  MOSUNNY   82  75  79 N7        30.00S
VALPARAISO     MOSUNNY   83  73  72 N6        30.00F

$$

...MARINE OBSERVATIONS...

STATION/POSITION TIME  SKY/WX   TEMP    WIND        PRES    VSBY
                                AIR SEA DIR/SP/G
                 (UTC)          (F)     (DEG/KT/KT) (MB)    (MI)
PASCAGOULA       1300            80      10/  5/  6 1015.8R
PETIT BOIS ISL   1300            83     260/  5/  5 1016.3R
E DAUPHIN ISLAND 1400            81      10/  7/  8 1015.8R
MIDDLE BAY LIGHT 1300            81     350/  5     1015.9R
USCG MOBILE BAY  1300            78 86   10/  6/  7 1015.3R
STATE DOCKS      1300            80 84              1016.0R
MEAHER PARK      1400            80     340/  3     1015.6S
FORT MORGAN      1300            83     330/  4/  5 1015.5R
12 S ORANGE BCH  1350            83 85   30/  6/  8 1015.4R
WVE H/P(F/S)=  1/ 4

PENSACOLA BAY    1300            80 86  360/  3/  5 1016.4R
64 S DAUPHIN ISL 1350            82 84  250/  6/  6 1016.5R
WVE H/P(F/S)=  1/ 6

115 SE PENSACOLA 1350            84 86  340/  8/ 10 1016.2S
WVE H/P(F/S)=  1/ 4

MID GULF/42001   1400            85 86  130/  6/  8 1016.4R
EAST GULF/42003  1350            85 87  350/  2/  4 1015.8R
WVE H/P(F/S)=  1/ 6


$$

...NEARBY LOCATIONS

CITY           SKY/WX    TMP DP  RH WIND       PRES   REMARKS
GULFPORT       SUNNY     82  74  76 CALM      30.00R
BILOXI         SUNNY     82  76  81 N3        30.01R
PASCAGOULA     MOSUNNY   81  76  84 NE5       30.01S
HATTIESBURG    MOSUNNY   78  73  84 CALM      30.03R
LAUREL         CLOUDY    75  72  88 CALM      30.04S
MERIDIAN       SUNNY     80  73  79 CALM      30.02S
MERIDIAN NAS   SUNNY     80  73  79 W7        30.02S
MONTGOMERY     SUNNY     80  72  76 VRB3      30.01F
MAXWELL AFB    SUNNY     78  73  82 NW3       30.01S
TROY           SUNNY     82  72  71 NW7       30.03S
FORT RUCKER    SUNNY     82  72  71 N6        30.00S
DALEVILLE      SUNNY     80  74  82 NW5       30.01R
DOTHAN         SUNNY     80  73  79 N8        30.04S

$$

...OTHER SURROUNDING LOCATIONS...

CITY           SKY/WX    TMP DP  RH WIND       PRES   REMARKS
BIRMINGHAM     SUNNY     79  72  79 CALM      30.05F
TUSCALOOSA     SUNNY     78  72  81 CALM      30.02S
COLUMBUS GA    SUNNY     80  67  64 NW3       30.01R
PANAMA CITY    NOT AVBL
TALLAHASSEE    MOSUNNY   83  72  69 N7        29.99F
BATON ROUGE    SUNNY     82  75  79 CALM      30.00R
NEW ORLEANS    PTSUNNY   83  75  77 S5        30.00R
SLIDELL        SUNNY     83  78  85 E3        30.00R
JACKSON        SUNNY     80  73  79 SW5       30.01S
MCCOMB         PTSUNNY   76  76 100 CALM      30.02S

$$

...SURROUNDING MARINE OBSERVATIONS...

STATION/POSITION TIME  SKY/WX   TEMP    WIND        PRES    VSBY
                                AIR SEA DIR/SP/G
                 (UTC)          (F)     (DEG/KT/KT) (MB)    (MI)
WAVELAND         1300            78 85   50/  4/  5 1016.2R
PASCAGOULA RGN A 1300            79     360/  4/  5 1015.5R
PASCAGOULA PORT  1300               85                N/A
GRAND ISLE       1300            81 84  170/  1/  3 1015.7R
SOUTHWEST PASS   1400                                 N/A
PILOT STATION E  1300            80 85  310/  7/ 13 1016.2R
SHELL BEACH      1300            81 84  110/  5/  5 1015.1R
PANAMA CITY      1300            80 85  330/  6/  8 1015.6R
APALACHICOLA     1300            81 86   10/  6/  8 1015.7R
TYNDALL TOWER C  1400            81     340/ 11/ 12 1015.4S
S APLCHCLA/42036 1350            85 86  320/ 10/ 12 1015.5F
WVE H/P(F/S)=  1/ 5


$$




USA.gov is the U.S. government's official web portal to all federal, state and local government web resources and services.